"read_dt","SO2 (ppb)","flags","PMT voltage (V)","lamp voltage (V)","lamp intensity (Hz)","internal temp (C)","react chamber temp (C)","sample flow (l/min)","pres (mmHg)","SO2 bkg (ppb)","SO2 coefficient"
2017-03-26 00:00:00,1757E-3,5C000400,-0724,0838,11999,030.4,045.5,0.215,745.9,01.17,0.508
2017-03-26 00:01:00,1777E-3,5C000400,-0724,0838,12070,030.2,045.5,0.215,745.9,01.17,0.508
2017-03-26 00:02:00,1787E-3,5C000400,-0724,0838,12124,030.1,045.5,0.215,745.9,01.17,0.508
2017-03-26 00:03:00,1779E-3,5C000400,-0724,0837,12002,029.9,045.5,0.216,745.9,01.17,0.508
2017-03-26 00:04:00,1907E-3,5C000400,-0724,0837,11933,029.8,045.5,0.216,746.0,01.17,0.508
2017-03-26 00:05:00,1703E-3,5C000400,-0724,0838,12077,029.8,045.5,0.216,745.8,01.17,0.508
2017-03-26 00:06:00,1856E-3,5C000400,-0724,0838,12142,029.7,045.5,0.216,745.8,01.17,0.508
2017-03-26 00:07:00,1736E-3,5C000400,-0724,0838,12023,029.7,045.5,0.216,745.9,01.17,0.508
2017-03-26 00:08:00,1854E-3,5C000400,-0724,0838,11922,029.8,045.5,0.216,745.8,01.17,0.508
2017-03-26 00:09:00,1866E-3,5C000400,-0724,0838,12027,029.8,045.5,0.217,745.9,01.17,0.508
2017-03-26 00:10:00,1757E-3,5C000400,-0724,0839,12118,029.9,045.5,0.217,745.9,01.17,0.508
2017-03-26 00:11:00,1640E-3,5C000400,-0724,0837,12059,030.0,045.5,0.217,745.9,01.17,0.508
2017-03-26 00:12:00,1687E-3,5C000400,-0724,0838,11953,030.1,045.5,0.217,745.9,01.17,0.508
2017-03-26 00:13:00,1735E-3,5C000400,-0724,0837,12131,030.2,045.5,0.217,746.0,01.17,0.508
2017-03-26 00:14:00,1693E-3,5C000400,-0724,0838,12116,030.3,045.6,0.217,745.8,01.17,0.508
2017-03-26 00:15:00,1630E-3,5C000400,-0724,0839,12084,030.4,045.6,0.216,745.9,01.17,0.508
2017-03-26 00:16:00,1599E-3,5C000400,-0724,0838,12050,030.5,045.6,0.217,746.0,01.17,0.508
2017-03-26 00:17:00,1799E-3,5C000400,-0724,0838,12121,030.6,045.6,0.216,745.9,01.17,0.508
2017-03-26 00:18:00,1942E-3,5C000400,-0724,0838,11967,030.6,045.5,0.216,745.9,01.17,0.508
2017-03-26 00:19:00,1612E-3,5C000400,-0724,0838,12028,030.7,045.6,0.216,745.9,01.17,0.508
2017-03-26 00:20:00,1696E-3,5C000400,-0724,0838,12014,030.8,045.6,0.216,745.9,01.17,0.508
2017-03-26 00:21:00,1821E-3,5C000400,-0724,0838,12099,030.9,045.6,0.216,746.0,01.17,0.508
2017-03-26 00:22:00,1657E-3,5C000400,-0724,0839,12092,031.0,045.6,0.216,746.0,01.17,0.508
2017-03-26 00:23:00,1791E-3,5C000400,-0724,0838,12073,031.0,045.6,0.216,746.0,01.17,0.508
2017-03-26 00:24:00,1775E-3,5C000400,-0724,0839,12077,031.1,045.6,0.215,746.0,01.17,0.508
2017-03-26 00:25:00,1682E-3,5C000400,-0724,0838,12027,031.1,045.6,0.215,746.0,01.17,0.508
2017-03-26 00:26:00,1665E-3,5C000400,-0724,0839,12068,031.2,045.6,0.215,746.0,01.17,0.508
2017-03-26 00:27:00,1854E-3,5C000400,-0724,0839,12069,031.2,045.6,0.215,746.0,01.17,0.508
2017-03-26 00:28:00,1684E-3,5C000400,-0724,0838,12062,031.1,045.6,0.216,746.0,01.17,0.508
2017-03-26 00:29:00,1709E-3,5C000400,-0724,0838,12048,031.0,045.5,0.215,746.0,01.17,0.508
2017-03-26 00:30:00,1717E-3,5C000400,-0724,0838,11972,030.9,045.6,0.215,746.1,01.17,0.508
2017-03-26 00:31:00,1812E-3,5C000400,-0724,0838,12136,030.7,045.5,0.215,746.1,01.17,0.508
2017-03-26 00:32:00,1742E-3,5C000400,-0724,0838,12111,030.5,045.5,0.215,746.1,01.17,0.508
2017-03-26 00:33:00,1852E-3,5C000400,-0724,0838,12006,030.4,045.5,0.215,746.2,01.17,0.508
2017-03-26 00:34:00,1764E-3,5C000400,-0724,0837,11981,030.2,045.5,0.215,746.3,01.17,0.508
2017-03-26 00:35:00,1673E-3,5C000400,-0724,0837,12049,030.0,045.5,0.215,746.2,01.17,0.508
2017-03-26 00:36:00,1842E-3,5C000400,-0724,0838,12087,029.9,045.5,0.216,746.1,01.17,0.508
2017-03-26 00:37:00,1639E-3,5C000400,-0724,0838,12073,029.8,045.5,0.216,746.1,01.17,0.508
2017-03-26 00:38:00,1691E-3,5C000400,-0724,0837,12083,029.8,045.5,0.216,746.2,01.17,0.508
2017-03-26 00:39:00,1712E-3,5C000400,-0724,0838,12093,029.7,045.6,0.217,746.2,01.17,0.508
2017-03-26 00:40:00,1830E-3,5C000400,-0724,0837,12061,029.7,045.5,0.217,746.1,01.17,0.508
2017-03-26 00:41:00,1759E-3,5C000400,-0724,0837,11995,029.6,045.5,0.217,746.2,01.17,0.508
2017-03-26 00:42:00,1853E-3,5C000400,-0724,0838,12194,029.6,045.5,0.217,746.1,01.17,0.508
2017-03-26 00:43:00,1709E-3,5C000400,-0724,0837,12026,029.7,045.5,0.217,746.2,01.17,0.508
2017-03-26 00:44:00,1837E-3,5C000400,-0724,0838,12056,029.8,045.5,0.217,746.1,01.17,0.508
2017-03-26 00:45:00,1864E-3,5C000400,-0724,0838,11898,029.8,045.5,0.217,746.2,01.17,0.508
2017-03-26 00:46:00,1759E-3,5C000400,-0724,0837,12058,029.8,045.5,0.217,746.1,01.17,0.508
2017-03-26 00:47:00,1759E-3,5C000400,-0724,0838,12047,029.7,045.5,0.217,746.2,01.17,0.508
2017-03-26 00:48:00,1790E-3,5C000400,-0724,0838,12156,029.7,045.5,0.217,746.2,01.17,0.508
2017-03-26 00:49:00,1776E-3,5C000400,-0724,0838,12059,029.6,045.5,0.217,746.2,01.17,0.508
2017-03-26 00:50:00,1725E-3,5C000400,-0724,0837,12021,029.5,045.5,0.217,746.1,01.17,0.508
2017-03-26 00:51:00,1761E-3,5C000400,-0724,0837,12160,029.5,045.5,0.217,746.2,01.17,0.508
2017-03-26 00:52:00,1824E-3,5C000400,-0724,0837,12100,029.5,045.5,0.217,746.2,01.17,0.508
2017-03-26 00:53:00,1705E-3,5C000400,-0724,0838,12160,029.5,045.5,0.218,746.2,01.17,0.508
2017-03-26 00:54:00,1758E-3,5C000400,-0724,0838,12069,029.6,045.5,0.218,746.2,01.17,0.508
2017-03-26 00:55:00,1894E-3,5C000400,-0724,0838,12056,029.6,045.5,0.218,746.2,01.17,0.508
2017-03-26 00:56:00,1787E-3,5C000400,-0724,0837,12083,029.6,045.5,0.217,746.2,01.17,0.508
2017-03-26 00:57:00,1781E-3,5C000400,-0724,0838,12128,029.6,045.5,0.218,746.2,01.17,0.508
2017-03-26 00:58:00,1673E-3,5C000400,-0724,0838,12121,029.5,045.5,0.218,746.3,01.17,0.508
2017-03-26 00:59:00,1695E-3,5C000400,-0724,0837,12084,029.5,045.5,0.218,746.2,01.17,0.508
2017-03-26 01:00:00,1748E-3,5C000400,-0724,0838,12102,029.4,045.5,0.218,746.3,01.17,0.508
2017-03-26 01:01:00,1624E-3,5C000400,-0724,0837,12186,029.4,045.5,0.217,746.3,01.17,0.508
2017-03-26 01:02:00,1726E-3,5C000400,-0724,0837,12171,029.4,045.5,0.218,746.2,01.17,0.508
2017-03-26 01:03:00,1816E-3,5C000400,-0724,0837,12159,029.4,045.5,0.218,746.2,01.17,0.508
2017-03-26 01:04:00,1822E-3,5C000400,-0724,0838,12024,029.4,045.5,0.218,746.1,01.17,0.508
2017-03-26 01:05:00,1793E-3,5C000400,-0724,0838,12112,029.3,045.5,0.218,746.3,01.17,0.508
2017-03-26 01:06:00,1768E-3,5C000400,-0724,0838,12107,029.3,045.5,0.218,746.1,01.17,0.508
2017-03-26 01:07:00,1779E-3,5C000400,-0724,0838,12122,029.3,045.5,0.218,746.1,01.17,0.508
2017-03-26 01:08:00,1783E-3,5C000400,-0724,0838,12033,029.3,045.5,0.218,746.0,01.17,0.508
2017-03-26 01:09:00,1770E-3,5C000400,-0724,0838,11983,029.3,045.5,0.218,746.2,01.17,0.508
2017-03-26 01:10:00,1801E-3,5C000400,-0724,0838,11993,029.3,045.5,0.218,746.1,01.17,0.508
2017-03-26 01:11:00,1683E-3,5C000400,-0724,0838,12031,029.2,045.5,0.218,746.0,01.17,0.508
2017-03-26 01:12:00,1668E-3,5C000400,-0724,0837,12016,029.2,045.5,0.218,746.1,01.17,0.508
2017-03-26 01:13:00,1699E-3,5C000400,-0724,0838,12030,029.2,045.5,0.219,746.2,01.17,0.508
2017-03-26 01:14:00,1680E-3,5C000400,-0724,0837,12084,029.2,045.5,0.218,746.2,01.17,0.508
2017-03-26 01:15:00,1742E-3,5C000400,-0724,0837,12019,029.2,045.5,0.218,746.0,01.17,0.508
2017-03-26 01:16:00,1805E-3,5C000400,-0724,0837,12129,029.3,045.5,0.218,746.1,01.17,0.508
2017-03-26 01:17:00,1768E-3,5C000400,-0724,0838,11935,029.3,045.5,0.218,746.2,01.17,0.508
2017-03-26 01:18:00,1784E-3,5C000400,-0724,0837,11967,029.3,045.5,0.219,746.1,01.17,0.508
2017-03-26 01:19:00,1851E-3,5C000400,-0724,0838,12101,029.3,045.5,0.218,746.1,01.17,0.508
2017-03-26 01:20:00,1730E-3,5C000400,-0724,0837,12072,029.3,045.5,0.218,746.1,01.17,0.508
2017-03-26 01:21:00,1934E-3,5C000400,-0724,0837,12095,029.2,045.5,0.218,746.1,01.17,0.508
2017-03-26 01:22:00,1678E-3,5C000400,-0724,0837,12032,029.2,045.5,0.218,746.1,01.17,0.508
2017-03-26 01:23:00,1797E-3,5C000400,-0724,0838,12098,029.2,045.5,0.219,746.1,01.17,0.508
2017-03-26 01:24:00,1716E-3,5C000400,-0724,0837,12095,029.2,045.5,0.219,746.1,01.17,0.508
2017-03-26 01:25:00,1660E-3,5C000400,-0724,0838,12046,029.2,045.5,0.219,746.1,01.17,0.508
2017-03-26 01:26:00,1835E-3,5C000400,-0724,0838,12133,029.1,045.5,0.218,746.0,01.17,0.508
2017-03-26 01:27:00,1822E-3,5C000400,-0724,0839,12123,029.1,045.5,0.218,746.1,01.17,0.508
2017-03-26 01:28:00,1801E-3,5C000400,-0724,0838,12038,029.1,045.5,0.219,746.0,01.17,0.508
2017-03-26 01:29:00,1611E-3,5C000400,-0724,0837,12022,029.1,045.5,0.219,746.0,01.17,0.508
2017-03-26 01:30:00,1747E-3,5C000400,-0724,0837,12112,029.0,045.5,0.219,746.0,01.17,0.508
2017-03-26 01:31:00,1696E-3,5C000400,-0724,0837,12017,029.0,045.5,0.219,745.8,01.17,0.508
2017-03-26 01:32:00,1681E-3,5C000400,-0724,0838,12139,029.1,045.5,0.219,745.9,01.17,0.508
2017-03-26 01:33:00,1747E-3,5C000400,-0724,0838,12095,029.0,045.5,0.219,746.1,01.17,0.508
2017-03-26 01:34:00,1677E-3,5C000400,-0724,0837,12110,029.1,045.5,0.219,746.1,01.17,0.508
2017-03-26 01:35:00,1819E-3,5C000400,-0724,0838,12075,029.2,045.5,0.219,746.1,01.17,0.508
2017-03-26 01:36:00,1633E-3,5C000400,-0724,0837,12148,029.2,045.5,0.219,746.2,01.17,0.508
2017-03-26 01:37:00,1570E-3,5C000400,-0724,0838,12059,029.3,045.5,0.219,746.2,01.17,0.508
2017-03-26 01:38:00,1817E-3,5C000400,-0724,0838,12029,029.3,045.5,0.219,746.2,01.17,0.508
2017-03-26 01:39:00,1775E-3,5C000400,-0724,0837,11984,029.4,045.5,0.218,746.1,01.17,0.508
2017-03-26 01:40:00,1759E-3,5C000400,-0724,0838,12214,029.4,045.5,0.219,746.0,01.17,0.508
2017-03-26 01:41:00,1746E-3,5C000400,-0724,0838,12120,029.5,045.5,0.219,745.9,01.17,0.508
2017-03-26 01:42:00,1688E-3,5C000400,-0724,0837,12126,029.5,045.5,0.219,745.9,01.17,0.508
2017-03-26 01:43:00,1789E-3,5C000400,-0724,0838,11969,029.4,045.5,0.218,745.9,01.17,0.508
2017-03-26 01:44:00,1839E-3,5C000400,-0724,0837,12119,029.3,045.5,0.218,746.2,01.17,0.508
2017-03-26 01:45:00,1734E-3,5C000400,-0724,0838,11983,029.3,045.5,0.218,746.3,01.17,0.508
2017-03-26 01:46:00,1822E-3,5C000400,-0724,0838,11888,029.2,045.5,0.218,746.3,01.17,0.508
2017-03-26 01:47:00,1947E-3,5C000400,-0724,0839,11995,029.2,045.5,0.219,746.2,01.17,0.508
2017-03-26 01:48:00,1826E-3,5C000400,-0724,0837,12007,029.2,045.5,0.219,746.1,01.17,0.508
2017-03-26 01:49:00,1753E-3,5C000400,-0724,0837,12111,029.1,045.5,0.219,746.1,01.17,0.508
2017-03-26 01:50:00,1790E-3,5C000400,-0724,0838,12001,029.1,045.5,0.219,746.2,01.17,0.508
2017-03-26 01:51:00,1723E-3,5C000400,-0724,0837,12110,029.1,045.5,0.218,746.2,01.17,0.508
2017-03-26 01:52:00,1727E-3,5C000400,-0724,0837,12010,029.1,045.5,0.218,746.2,01.17,0.508
2017-03-26 01:53:00,1792E-3,5C000400,-0724,0838,12066,029.1,045.5,0.219,746.2,01.17,0.508
2017-03-26 01:54:00,1637E-3,5C000400,-0724,0836,12116,029.1,045.5,0.219,746.1,01.17,0.508
2017-03-26 01:55:00,1838E-3,5C000400,-0724,0837,11985,029.1,045.5,0.219,746.1,01.17,0.508
2017-03-26 01:56:00,1775E-3,5C000400,-0724,0837,12135,029.0,045.5,0.219,746.2,01.17,0.508
2017-03-26 01:57:00,1797E-3,5C000400,-0724,0837,12088,029.1,045.5,0.219,746.2,01.17,0.508
2017-03-26 01:58:00,1902E-3,5C000400,-0724,0838,12043,029.2,045.5,0.219,746.0,01.17,0.508
2017-03-26 01:59:00,1732E-3,5C000400,-0724,0838,12050,029.2,045.5,0.219,746.1,01.17,0.508
2017-03-26 02:00:00,1842E-3,5C000400,-0724,0838,12053,029.2,045.5,0.219,746.1,01.17,0.508
2017-03-26 02:01:00,1692E-3,5C000400,-0724,0837,11966,029.1,045.5,0.218,746.0,01.17,0.508
2017-03-26 02:02:00,1868E-3,5C000400,-0724,0837,12146,029.1,045.5,0.219,746.1,01.17,0.508
2017-03-26 02:03:00,1759E-3,5C000400,-0724,0838,11974,029.1,045.5,0.219,745.9,01.17,0.508
2017-03-26 02:04:00,1903E-3,5C000400,-0724,0838,11946,029.1,045.5,0.219,746.1,01.17,0.508
2017-03-26 02:05:00,1655E-3,5C000400,-0724,0837,12085,029.1,045.5,0.219,746.0,01.17,0.508
2017-03-26 02:06:00,1621E-3,5C000400,-0724,0838,11874,029.1,045.5,0.219,746.0,01.17,0.508
2017-03-26 02:07:00,1747E-3,5C000400,-0724,0838,11913,029.2,045.5,0.219,746.0,01.17,0.508
2017-03-26 02:08:00,1777E-3,5C000400,-0724,0838,12070,029.2,045.5,0.219,745.9,01.17,0.508
2017-03-26 02:09:00,1981E-3,5C000400,-0724,0838,12070,029.2,045.5,0.219,746.0,01.17,0.508
2017-03-26 02:10:00,1838E-3,5C000400,-0724,0837,12143,029.2,045.5,0.219,745.9,01.17,0.508
2017-03-26 02:11:00,1634E-3,5C000400,-0724,0838,12019,029.2,045.5,0.219,746.1,01.17,0.508
2017-03-26 02:12:00,1935E-3,5C000400,-0724,0838,11983,029.1,045.5,0.218,746.1,01.17,0.508
2017-03-26 02:13:00,1769E-3,5C000400,-0724,0838,12090,029.1,045.5,0.219,746.0,01.17,0.508
2017-03-26 02:14:00,1814E-3,5C000400,-0724,0837,12078,029.1,045.5,0.219,745.9,01.17,0.508
2017-03-26 02:15:00,1647E-3,5C000400,-0724,0837,12098,029.1,045.5,0.219,746.0,01.17,0.508
2017-03-26 02:16:00,1889E-3,5C000400,-0724,0837,12072,029.0,045.5,0.219,746.0,01.17,0.508
2017-03-26 02:17:00,1735E-3,5C000400,-0724,0837,12112,029.0,045.5,0.219,746.0,01.17,0.508
2017-03-26 02:18:00,1740E-3,5C000400,-0724,0838,12065,029.0,045.5,0.219,745.9,01.17,0.508
2017-03-26 02:19:00,1697E-3,5C000400,-0724,0837,12115,029.0,045.5,0.219,745.9,01.17,0.508
2017-03-26 02:20:00,1878E-3,5C000400,-0724,0837,12063,029.1,045.5,0.219,745.7,01.17,0.508
2017-03-26 02:21:00,1748E-3,5C000400,-0724,0837,12159,029.2,045.5,0.219,745.7,01.17,0.508
2017-03-26 02:22:00,1779E-3,5C000400,-0724,0837,12015,029.2,045.5,0.219,745.7,01.17,0.508
2017-03-26 02:23:00,1858E-3,5C000400,-0724,0838,11996,029.3,045.5,0.218,745.6,01.17,0.508
2017-03-26 02:24:00,1822E-3,5C000400,-0724,0837,12027,029.3,045.5,0.219,745.6,01.17,0.508
2017-03-26 02:25:00,1830E-3,5C000400,-0724,0838,12124,029.3,045.5,0.219,745.5,01.17,0.508
2017-03-26 02:26:00,1753E-3,5C000400,-0724,0837,12055,029.2,045.5,0.219,745.5,01.17,0.508
2017-03-26 02:27:00,1803E-3,5C000400,-0724,0837,12157,029.2,045.5,0.219,745.5,01.17,0.508
2017-03-26 02:28:00,1789E-3,5C000400,-0724,0837,11954,029.1,045.5,0.219,745.4,01.17,0.508
2017-03-26 02:29:00,1795E-3,5C000400,-0724,0837,12121,029.1,045.5,0.219,745.5,01.17,0.508
2017-03-26 02:30:00,1881E-3,5C000400,-0724,0837,12000,029.1,045.5,0.219,745.5,01.17,0.508
2017-03-26 02:31:00,1668E-3,5C000400,-0724,0838,11998,029.1,045.5,0.219,745.5,01.17,0.508
2017-03-26 02:32:00,1783E-3,5C000400,-0724,0838,12083,029.1,045.5,0.219,745.5,01.17,0.508
2017-03-26 02:33:00,1876E-3,5C000400,-0724,0837,12133,029.1,045.5,0.219,745.4,01.17,0.508
2017-03-26 02:34:00,1869E-3,5C000400,-0724,0838,12143,029.1,045.5,0.219,745.7,01.17,0.508
2017-03-26 02:35:00,1807E-3,5C000400,-0724,0838,12105,029.2,045.5,0.219,745.6,01.17,0.508
2017-03-26 02:36:00,1721E-3,5C000400,-0724,0837,12050,029.1,045.5,0.219,745.5,01.17,0.508
2017-03-26 02:37:00,1805E-3,5C000400,-0724,0838,11902,029.1,045.5,0.219,745.5,01.17,0.508
2017-03-26 02:38:00,1763E-3,5C000400,-0724,0837,12127,029.1,045.5,0.219,745.7,01.17,0.508
2017-03-26 02:39:00,1860E-3,5C000400,-0724,0838,12089,029.0,045.5,0.219,745.9,01.17,0.508
2017-03-26 02:40:00,1897E-3,5C000400,-0724,0838,11903,029.0,045.5,0.218,746.0,01.17,0.508
2017-03-26 02:41:00,1715E-3,5C000400,-0724,0838,12020,029.0,045.5,0.219,746.1,01.17,0.508
2017-03-26 02:42:00,1781E-3,5C000400,-0724,0837,12196,029.0,045.5,0.219,746.2,01.17,0.508
2017-03-26 02:43:00,1843E-3,5C000400,-0724,0838,12066,029.0,045.5,0.219,746.1,01.17,0.508
2017-03-26 02:44:00,1832E-3,5C000400,-0724,0838,11974,029.0,045.5,0.219,746.2,01.17,0.508
2017-03-26 02:45:00,1880E-3,5C000400,-0724,0838,12007,029.0,045.5,0.219,746.3,01.17,0.508
2017-03-26 02:46:00,1889E-3,5C000400,-0724,0836,11978,029.0,045.5,0.219,746.4,01.17,0.508
2017-03-26 02:47:00,1758E-3,5C000400,-0724,0837,12038,029.0,045.5,0.219,746.4,01.17,0.508
2017-03-26 02:48:00,1853E-3,5C000400,-0724,0837,12045,029.0,045.5,0.219,746.3,01.17,0.508
2017-03-26 02:49:00,1754E-3,5C000400,-0724,0838,12162,029.1,045.5,0.219,746.3,01.17,0.508
2017-03-26 02:50:00,1889E-3,5C000400,-0724,0837,12084,029.1,045.5,0.219,746.3,01.17,0.508
2017-03-26 02:51:00,1797E-3,5C000400,-0724,0837,12009,029.2,045.5,0.219,746.3,01.17,0.508
2017-03-26 02:52:00,1729E-3,5C000400,-0724,0838,12073,029.2,045.5,0.219,746.3,01.17,0.508
2017-03-26 02:53:00,1820E-3,5C000400,-0724,0837,12011,029.2,045.5,0.219,746.4,01.17,0.508
2017-03-26 02:54:00,1633E-3,5C000400,-0724,0838,12104,029.1,045.5,0.218,746.4,01.17,0.508
2017-03-26 02:55:00,1742E-3,5C000400,-0724,0839,12165,029.1,045.5,0.219,746.4,01.17,0.508
2017-03-26 02:56:00,1737E-3,5C000400,-0724,0837,12040,029.1,045.5,0.219,746.4,01.17,0.508
2017-03-26 02:57:00,1742E-3,5C000400,-0724,0838,12111,029.0,045.5,0.219,746.2,01.17,0.508
2017-03-26 02:58:00,1743E-3,5C000400,-0724,0838,12073,029.0,045.5,0.219,746.3,01.17,0.508
2017-03-26 02:59:00,1821E-3,5C000400,-0724,0837,12071,029.0,045.5,0.219,746.4,01.17,0.508
2017-03-26 03:00:00,1776E-3,5C000400,-0724,0838,12098,029.0,045.5,0.219,746.2,01.17,0.508
2017-03-26 03:01:00,1830E-3,5C000400,-0724,0837,11976,029.0,045.5,0.219,746.3,01.17,0.508
2017-03-26 03:02:00,1774E-3,5C000400,-0724,0838,12073,029.0,045.5,0.219,746.3,01.17,0.508
2017-03-26 03:03:00,1680E-3,5C000400,-0724,0837,12039,029.0,045.5,0.219,746.3,01.17,0.508
2017-03-26 03:04:00,1739E-3,5C000400,-0724,0837,12026,028.9,045.5,0.219,746.2,01.17,0.508
2017-03-26 03:05:00,1918E-3,5C000400,-0724,0838,12064,029.0,045.5,0.219,746.5,01.17,0.508
2017-03-26 03:06:00,1865E-3,5C000400,-0724,0838,11941,029.0,045.5,0.219,746.5,01.17,0.508
2017-03-26 03:07:00,1860E-3,5C000400,-0724,0838,12105,029.0,045.5,0.219,746.6,01.17,0.508
2017-03-26 03:08:00,1857E-3,5C000400,-0724,0837,12020,028.9,045.5,0.219,746.7,01.17,0.508
2017-03-26 03:09:00,1839E-3,5C000400,-0724,0838,12134,028.9,045.5,0.219,746.8,01.17,0.508
2017-03-26 03:10:00,1780E-3,5C000400,-0724,0837,12076,028.9,045.5,0.219,746.8,01.17,0.508
2017-03-26 03:11:00,1779E-3,5C000400,-0724,0838,12134,028.9,045.5,0.219,746.8,01.17,0.508
2017-03-26 03:12:00,1907E-3,5C000400,-0724,0838,12114,028.9,045.5,0.219,746.8,01.17,0.508
2017-03-26 03:13:00,1868E-3,5C000400,-0724,0838,11984,028.9,045.5,0.219,746.9,01.17,0.508
2017-03-26 03:14:00,1838E-3,5C000400,-0724,0838,12012,028.9,045.5,0.219,746.9,01.17,0.508
2017-03-26 03:15:00,1764E-3,5C000400,-0724,0838,12074,028.9,045.5,0.219,747.0,01.17,0.508
2017-03-26 03:16:00,1884E-3,5C000400,-0724,0838,12043,028.9,045.5,0.219,747.0,01.17,0.508
2017-03-26 03:17:00,1789E-3,5C000400,-0724,0837,12098,028.9,045.5,0.219,747.0,01.17,0.508
2017-03-26 03:18:00,1895E-3,5C000400,-0724,0836,12056,028.8,045.5,0.219,746.9,01.17,0.508
2017-03-26 03:19:00,1878E-3,5C000400,-0724,0838,12164,028.8,045.5,0.219,746.9,01.17,0.508
2017-03-26 03:20:00,1829E-3,5C000400,-0724,0837,11996,028.8,045.5,0.219,746.9,01.17,0.508
2017-03-26 03:21:00,1803E-3,5C000400,-0724,0836,12082,028.8,045.5,0.219,746.9,01.17,0.508
2017-03-26 03:22:00,1807E-3,5C000400,-0724,0838,12117,028.8,045.5,0.219,746.9,01.17,0.508
2017-03-26 03:23:00,1727E-3,5C000400,-0724,0837,12048,028.8,045.5,0.219,746.9,01.17,0.508
2017-03-26 03:24:00,1852E-3,5C000400,-0724,0837,12028,028.8,045.5,0.219,746.8,01.17,0.508
2017-03-26 03:25:00,1735E-3,5C000400,-0724,0838,12002,028.8,045.5,0.219,746.8,01.17,0.508
2017-03-26 03:26:00,1829E-3,5C000400,-0724,0837,12032,028.8,045.5,0.219,746.8,01.17,0.508
2017-03-26 03:27:00,1707E-3,5C000400,-0724,0838,11988,028.8,045.5,0.219,746.8,01.17,0.508
2017-03-26 03:28:00,1707E-3,5C000400,-0724,0837,11905,028.8,045.5,0.220,746.8,01.17,0.508
2017-03-26 03:29:00,1863E-3,5C000400,-0724,0837,12017,028.8,045.5,0.220,746.7,01.17,0.508
2017-03-26 03:30:00,1872E-3,5C000400,-0724,0837,12014,028.8,045.5,0.220,746.6,01.17,0.508
2017-03-26 03:31:00,1982E-3,5C000400,-0724,0837,12032,028.8,045.5,0.219,746.7,01.17,0.508
2017-03-26 03:32:00,1739E-3,5C000400,-0724,0837,12065,028.8,045.5,0.219,746.7,01.17,0.508
2017-03-26 03:33:00,1671E-3,5C000400,-0724,0837,12003,028.8,045.5,0.219,746.8,01.17,0.508
2017-03-26 03:34:00,1810E-3,5C000400,-0724,0838,12051,028.8,045.5,0.219,746.8,01.17,0.508
2017-03-26 03:35:00,1795E-3,5C000400,-0724,0837,12077,028.8,045.5,0.219,746.9,01.17,0.508
2017-03-26 03:36:00,1674E-3,5C000400,-0724,0837,12122,028.7,045.5,0.219,747.0,01.17,0.508
2017-03-26 03:37:00,1715E-3,5C000400,-0724,0838,12032,028.8,045.5,0.219,747.0,01.17,0.508
2017-03-26 03:38:00,1754E-3,5C000400,-0724,0839,11999,028.8,045.5,0.219,747.1,01.17,0.508
2017-03-26 03:39:00,1776E-3,5C000400,-0724,0838,12106,028.8,045.5,0.220,747.2,01.17,0.508
2017-03-26 03:40:00,1763E-3,5C000400,-0724,0838,12092,028.8,045.5,0.219,747.0,01.17,0.508
2017-03-26 03:41:00,1782E-3,5C000400,-0724,0837,12022,028.7,045.5,0.219,747.1,01.17,0.508
2017-03-26 03:42:00,2057E-3,5C000400,-0724,0837,11973,028.7,045.5,0.219,747.1,01.17,0.508
2017-03-26 03:43:00,1919E-3,5C000400,-0724,0838,12082,028.8,045.5,0.220,747.0,01.17,0.508
2017-03-26 03:44:00,1827E-3,5C000400,-0724,0837,12127,028.7,045.5,0.219,747.2,01.17,0.508
2017-03-26 03:45:00,1786E-3,5C000400,-0724,0837,11995,028.7,045.5,0.219,747.2,01.17,0.508
2017-03-26 03:46:00,1778E-3,5C000400,-0724,0838,12058,028.7,045.5,0.219,747.2,01.17,0.508
2017-03-26 03:47:00,1745E-3,5C000400,-0724,0838,11990,028.7,045.5,0.219,747.2,01.17,0.508
2017-03-26 03:48:00,1731E-3,5C000400,-0724,0838,12100,028.7,045.5,0.220,747.2,01.17,0.508
2017-03-26 03:49:00,1714E-3,5C000400,-0724,0838,12123,028.7,045.5,0.220,747.2,01.17,0.508
2017-03-26 03:50:00,1909E-3,5C000400,-0724,0837,12006,028.7,045.5,0.219,747.3,01.17,0.508
2017-03-26 03:51:00,1797E-3,5C000400,-0724,0837,12035,028.8,045.5,0.219,747.2,01.17,0.508
2017-03-26 03:52:00,1928E-3,5C000400,-0724,0838,12040,028.7,045.5,0.220,747.2,01.17,0.508
2017-03-26 03:53:00,1792E-3,5C000400,-0724,0837,12194,028.7,045.5,0.220,747.1,01.17,0.508
2017-03-26 03:54:00,1824E-3,5C000400,-0724,0837,11997,028.7,045.5,0.219,747.0,01.17,0.508
2017-03-26 03:55:00,1778E-3,5C000400,-0724,0838,11967,028.7,045.5,0.219,746.9,01.17,0.508
2017-03-26 03:56:00,1798E-3,5C000400,-0724,0838,12090,028.7,045.5,0.219,746.9,01.17,0.508
2017-03-26 03:57:00,1805E-3,5C000400,-0724,0837,12037,028.7,045.5,0.219,746.8,01.17,0.508
2017-03-26 03:58:00,1807E-3,5C000400,-0724,0837,12131,028.7,045.5,0.220,746.8,01.17,0.508
2017-03-26 03:59:00,1836E-3,5C000400,-0724,0837,12149,028.7,045.5,0.220,746.8,01.17,0.508
2017-03-26 04:00:00,1633E-3,5C000400,-0724,0838,12107,028.7,045.5,0.220,746.8,01.17,0.508
2017-03-26 04:01:00,1759E-3,5C000400,-0724,0837,12038,028.7,045.5,0.219,746.8,01.17,0.508
2017-03-26 04:02:00,1920E-3,5C000400,-0724,0837,12137,028.7,045.5,0.219,746.8,01.17,0.508
2017-03-26 04:03:00,1861E-3,5C000400,-0724,0837,12013,028.6,045.5,0.220,746.8,01.17,0.508
2017-03-26 04:04:00,1768E-3,5C000400,-0724,0837,12030,028.7,045.5,0.220,746.8,01.17,0.508
2017-03-26 04:05:00,1881E-3,5C000400,-0724,0837,12071,028.6,045.5,0.220,746.8,01.17,0.508
2017-03-26 04:06:00,1729E-3,5C000400,-0724,0837,11949,028.7,045.5,0.220,746.8,01.17,0.508
2017-03-26 04:07:00,1825E-3,5C000400,-0724,0837,12124,028.7,045.5,0.219,746.8,01.17,0.508
2017-03-26 04:08:00,1712E-3,5C000400,-0724,0837,12057,028.7,045.5,0.220,746.8,01.17,0.508
2017-03-26 04:09:00,1906E-3,5C000400,-0724,0837,11967,028.7,045.5,0.220,746.7,01.17,0.508
2017-03-26 04:10:00,1595E-3,5C000400,-0724,0838,12073,028.7,045.5,0.220,746.8,01.17,0.508
2017-03-26 04:11:00,1745E-3,5C000400,-0724,0838,12050,028.7,045.5,0.219,746.8,01.17,0.508
2017-03-26 04:12:00,1933E-3,5C000400,-0724,0837,12173,028.7,045.5,0.219,746.7,01.17,0.508
2017-03-26 04:13:00,1760E-3,5C000400,-0724,0836,11995,028.7,045.5,0.220,746.8,01.17,0.508
2017-03-26 04:14:00,1742E-3,5C000400,-0724,0837,12025,028.7,045.5,0.220,746.8,01.17,0.508
2017-03-26 04:15:00,1799E-3,5C000400,-0724,0837,12124,028.7,045.5,0.219,746.7,01.17,0.508
2017-03-26 04:16:00,1697E-3,5C000400,-0724,0837,12037,028.7,045.5,0.219,746.8,01.17,0.508
2017-03-26 04:17:00,1725E-3,5C000400,-0724,0837,12065,028.7,045.5,0.220,746.8,01.17,0.508
2017-03-26 04:18:00,1682E-3,5C000400,-0724,0838,11898,028.7,045.5,0.220,746.9,01.17,0.508
2017-03-26 04:19:00,1791E-3,5C000400,-0724,0838,12086,028.6,045.5,0.220,746.9,01.17,0.508
2017-03-26 04:20:00,1748E-3,5C000400,-0724,0837,12155,028.6,045.5,0.219,746.9,01.17,0.508